Theta_e
281 282 282 281 281 281 280 280 279 279 279 279 280 280 281 281 281 281 281 282 281 282 283 283 284 285 286 285 284 286 287 288 286 288 283 282 282 284 284 287 287 286 289
281 281 281 281 280 279 279 279 280 279 280 278 279 279 279 279 279 280 280 281 281 280 281 282 282 285 283 284 285 284 284 285 286 286 288 280 281 283 285 284 285 285 286
280 279 279 279 278 278 279 279 279 279 279 278 278 278 279 278 278 278 278 279 280 280 280 281 281 282 283 284 284 284 285 286 284 284 285 281 280 280 280 281 283 282 283
280 279 278 278 278 278 278 278 278 278 278 278 277 278 278 278 278 278 278 278 279 280 281 281 281 281 281 282 283 284 284 284 284 283 283 284 279 280 282 281 279 281 281
279 279 278 279 278 278 277 277 277 277 278 278 277 277 277 277 277 277 278 278 278 279 280 280 281 282 284 284 283 282 283 283 283 283 283 282 279 278 279 280 282 281 281
278 276 278 277 277 277 277 277 277 276 276 276 276 276 275 277 280 281 280 277 278 277 277 279 279 281 282 285 286 288 287 283 282 283 283 282 283 281 282 282 281 280 279
274 273 274 274 274 274 274 274 273 272 273 272 273 273 273 274 278 279 280 278 277 276 276 277 278 279 280 280 283 285 285 287 289 285 283 283 283 284 282 281 281 282 282
273 271 271 272 271 271 270 269 269 270 269 269 270 270 270 272 275 276 276 275 274 275 275 275 275 275 277 278 279 279 281 281 282 284 285 286 287 286 285 283 283 282 283
273 272 271 269 267 268 266 266 267 266 266 266 267 267 266 267 271 272 273 271 271 271 273 273 273 273 276 278 276 276 277 280 284 287 288 289 290 291 290 285 282 280 279
271 270 269 268 263 264 265 264 264 264 265 265 265 265 264 264 268 270 271 269 268 269 270 272 274 274 276 278 275 275 274 277 279 281 282 284 288 287 290 289 284 281 280
268 267 265 265 263 263 262 263 262 262 263 261 262 262 263 264 264 269 271 269 268 268 268 269 271 274 275 276 278 276 276 279 280 281 281 281 281 282 284 286 287 284 281
264 263 262 260 261 262 260 260 260 260 259 259 260 261 263 264 266 268 271 272 272 269 268 269 269 272 274 275 274 276 278 279 279 279 280 280 281 280 282 284 286 286 285
258 256 256 258 260 261 259 259 259 259 259 259 260 260 261 263 264 269 271 272 272 269 269 270 274 275 275 275 274 274 273 272 274 275 278 280 281 282 282 282 284 286 285
251 256 258 258 259 259 260 261 259 258 259 259 259 260 262 264 266 268 268 268 270 270 271 269 270 273 274 274 272 272 272 272 272 273 278 281 283 281 281 283 282 283 282
255 258 258 258 257 259 260 260 260 262 263 263 265 265 265 265 267 271 272 271 271 273 273 273 271 267 265 265 267 269 270 271 270 275 276 280 281 281 281 282 281 281 279
256 258 259 259 259 260 259 259 264 266 268 270 271 270 268 271 273 274 274 275 275 276 273 271 270 270 269 269 268 268 269 270 272 276 277 277 277 279 280 280 281 280 277
252 257 258 259 258 258 258 258 257 261 267 267 268 270 270 271 271 272 273 274 274 272 268 267 267 268 269 269 268 268 268 270 273 274 276 275 276 278 279 279 278 278 276
251 256 256 257 257 258 258 258 258 257 257 259 264 267 268 269 270 271 270 268 261 263 263 264 265 266 267 268 269 268 269 270 272 273 275 275 278 279 278 278 277 276 276
253 254 254 256 258 258 257 257 258 258 258 258 260 262 263 267 268 267 267 260 260 260 261 262 263 263 264 265 268 268 268 268 270 270 273 275 277 279 278 278 277 276 275
250 255 257 253 256 256 256 256 257 257 257 258 258 259 260 263 259 259 259 259 259 259 260 261 262 262 265 267 269 270 270 270 270 271 273 276 277 277 277 277 275 274 274
250 252 254 253 254 254 255 255 255 256 256 257 258 260 268 260 258 258 259 259 259 259 259 259 260 262 263 265 266 269 273 272 273 273 275 277 276 275 277 276 275 274 274
249 248 249 251 253 253 252 254 254 255 255 256 257 258 264 258 258 258 259 259 260 260 260 260 260 262 263 264 264 265 267 268 270 272 272 272 272 272 273 272 272 272 270
249 249 251 253 252 252 251 250 250 252 254 254 255 256 256 256 257 257 258 259 260 260 261 261 261 262 263 264 265 266 265 265 267 269 268 269 269 269 270 269 269 268 268
248 250 253 254 250 249 249 250 250 252 252 252 251 253 254 255 255 256 257 258 259 260 261 261 261 262 263 264 265 265 266 267 267 268 268 267 267 267 267 267 267 267 267
250 253 253 253 246 248 248 247 249 247 248 250 251 251 253 253 254 254 255 256 258 259 260 260 261 262 263 265 265 265 266 266 266 267 267 267 266 266 265 266 266 266 266
254 254 253 250 249 247 245 245 246 248 248 250 251 251 251 252 253 253 254 255 256 257 259 260 260 261 262 265 266 269 269 268 266 266 266 265 265 265 265 265 264 264 264
Wind_Speed
6 5 6 6 6 6 5 5 4 4 4 4 6 6 7 8 7 8 10 9 7 8 6 6 8 7 7 5 4 6 8 8 13 11 4 5 6 9 7 10 9 11 11
3 3 4 4 6 6 6 7 7 8 7 7 9 9 9 8 7 6 9 8 10 12 11 7 9 7 7 7 6 8 7 8 10 16 9 4 8 8 11 10 10 9 10
3 2 1 2 3 4 6 6 7 7 9 9 8 9 11 11 12 12 9 10 9 10 10 11 11 8 9 7 8 9 7 7 8 10 11 4 4 3 3 4 8 8 7
5 4 3 4 4 5 5 6 6 6 8 9 9 10 11 12 12 13 12 12 13 11 11 11 12 11 11 10 9 11 9 9 8 9 10 9 5 4 4 7 6 6 9
4 2 3 3 4 4 5 6 6 7 7 8 10 10 10 10 9 11 12 12 14 16 16 14 12 14 18 18 10 10 10 10 9 9 10 8 6 5 6 4 10 6 10
2 3 4 5 7 7 7 9 10 11 12 12 13 13 14 10 20 24 21 14 15 16 16 16 15 17 17 24 27 27 20 12 12 11 11 12 14 10 8 9 8 8 8
3 3 5 5 5 6 8 11 13 14 14 15 15 15 17 17 25 27 28 15 16 16 17 17 16 13 16 15 20 26 27 27 27 16 16 16 13 10 9 11 11 12 13
2 3 4 5 5 8 10 11 12 12 14 14 15 15 17 15 28 30 30 19 17 18 17 17 18 19 18 19 18 18 18 17 18 14 17 19 16 12 11 12 14 14 11
2 2 2 3 6 8 9 11 11 13 13 14 14 16 16 16 26 29 26 16 17 19 18 18 18 20 26 31 22 21 21 20 21 28 29 29 26 26 20 8 11 10 11
2 4 5 5 3 8 10 11 10 11 14 12 15 14 17 17 23 27 24 12 15 14 16 17 25 25 32 33 22 20 21 22 17 17 14 20 25 21 27 18 12 15 13
2 3 4 6 7 9 10 9 11 12 13 13 14 13 14 15 16 26 26 14 12 13 13 13 12 27 33 34 33 20 21 21 22 20 16 14 13 12 12 14 14 14 14
1 3 5 5 6 8 9 10 10 11 12 12 13 12 10 13 20 23 27 28 25 16 15 13 14 29 31 32 29 34 39 31 16 15 14 14 14 12 12 12 16 14 15
2 4 6 7 7 8 8 11 9 9 8 10 10 11 11 11 12 26 29 30 29 20 14 21 34 35 36 29 28 30 30 15 16 16 16 15 14 13 12 11 12 14 14
4 6 5 5 7 5 6 8 8 8 8 10 11 12 12 11 11 10 12 14 23 21 25 20 24 29 32 28 19 18 13 13 14 17 17 12 10 10 11 12 11 11 10
5 5 5 5 5 7 7 9 8 10 12 12 11 12 12 12 12 24 23 15 14 18 22 14 11 10 11 12 12 13 12 13 14 18 18 13 11 9 11 11 11 10 10
4 4 4 6 5 6 7 9 18 21 25 26 27 21 12 25 31 32 32 32 33 33 17 12 12 12 13 13 13 12 12 15 12 13 11 10 7 7 10 11 11 11 10
5 5 5 6 5 7 7 8 10 16 25 22 21 24 27 26 29 30 31 32 30 26 11 11 12 13 13 13 12 12 13 12 13 12 9 9 9 10 12 11 10 11 11
4 7 5 5 5 6 7 8 8 9 12 16 16 21 23 26 28 29 27 22 12 11 9 11 12 13 14 13 11 10 9 10 10 10 9 6 9 10 11 12 10 12 11
4 3 4 4 5 7 7 8 8 8 9 10 12 15 16 25 24 22 23 8 10 10 10 11 12 13 13 13 12 10 11 12 11 11 11 9 9 10 10 10 10 14 14
3 7 5 2 5 5 6 7 7 7 9 9 9 10 13 12 12 12 10 10 9 10 10 12 12 13 13 12 11 10 11 11 11 11 12 10 8 7 7 7 9 10 10
2 4 4 3 4 5 5 6 6 7 8 8 9 9 23 9 10 10 10 10 10 10 11 11 11 12 11 12 12 11 10 9 9 10 10 10 6 7 7 7 8 9 8
3 3 2 4 4 4 4 5 5 6 7 8 8 8 20 7 8 9 10 10 10 9 9 10 10 10 11 11 11 10 9 7 8 5 3 2 2 3 3 5 5 6 7
3 2 3 3 3 4 4 4 4 4 6 7 7 8 8 8 9 9 10 11 11 10 10 9 10 10 11 10 10 9 8 8 7 5 4 4 4 4 5 5 6 7 7
2 3 3 3 2 2 3 4 4 5 5 5 5 6 7 7 8 10 10 10 10 10 10 10 10 13 13 10 9 8 8 7 7 6 7 5 5 6 6 6 6 7 8
3 3 3 2 3 3 4 4 3 4 5 5 6 5 6 7 7 8 8 9 9 10 11 11 10 14 16 19 11 11 11 12 10 10 6 8 9 9 7 6 7 8 9
3 3 3 2 3 2 3 3 4 4 5 5 6 6 6 7 7 8 8 9 9 10 12 9 12 17 18 14 17 16 11 12 11 12 7 7 7 7 7 9 12 9 10
Wind_Direction
48 40 29 21 21 13 7 349 348 329 331 324 323 316 314 318 331 337 331 326 322 310 304 292 280 264 270 256 234 241 250 248 263 270 232 226 210 206 209 211 209 208 216
110 72 32 10 1 350 342 333 338 330 326 329 335 328 324 320 314 309 306 307 310 311 307 297 284 290 273 264 256 246 233 241 255 269 263 232 218 215 214 209 209 214 214
186 188 225 288 298 304 302 306 312 314 312 314 315 311 310 315 316 313 303 294 282 274 283 291 289 281 280 273 266 265 253 245 237 253 261 234 223 187 193 214 206 211 212
196 207 237 265 274 281 287 288 284 281 283 287 288 292 292 299 295 295 296 296 295 289 278 268 273 273 270 268 262 265 263 253 248 250 254 250 221 224 214 196 210 208 216
208 243 321 312 282 281 288 282 283 278 282 277 285 283 282 278 284 295 294 295 294 294 292 286 278 268 261 264 263 258 257 257 253 252 254 244 213 201 219 199 221 203 222
37 8 344 351 355 343 337 333 325 318 314 309 302 299 293 285 293 300 300 295 293 290 287 286 284 280 273 270 272 269 255 251 253 250 252 245 243 222 216 214 211 199 235
41 5 358 356 352 347 334 325 319 314 312 307 305 305 300 298 305 303 303 297 291 284 283 282 281 278 281 279 276 273 272 265 254 249 250 244 251 234 214 214 210 220 225
48 360 10 15 345 328 321 316 312 309 308 306 304 304 298 300 309 309 307 299 291 283 279 279 279 282 278 281 279 273 267 260 257 253 249 253 245 241 227 215 221 225 240
20 61 51 355 317 316 308 306 306 305 302 300 298 302 302 303 308 305 305 298 289 287 285 280 277 276 276 279 278 277 275 268 262 258 253 252 247 244 237 217 227 219 235
54 354 338 321 294 303 299 300 297 294 294 298 298 297 296 297 301 301 301 291 287 287 286 286 283 281 282 279 271 268 266 263 264 262 258 260 253 246 244 237 214 219 227
42 335 315 304 301 292 289 292 294 293 294 294 293 293 290 287 288 294 296 292 290 288 285 287 288 293 292 290 289 278 269 273 266 258 254 249 245 238 232 234 216 214 218
340 283 282 279 283 290 283 287 287 287 288 292 292 291 287 284 282 286 292 292 290 289 287 281 280 285 285 281 276 274 280 280 276 256 249 240 237 233 228 225 231 222 226
278 271 269 271 273 272 279 287 291 285 290 292 291 290 286 282 275 281 284 286 286 280 271 271 275 281 282 288 294 285 283 277 276 270 244 244 229 229 228 225 225 233 231
271 277 275 267 275 272 275 284 284 287 290 286 284 282 280 280 282 281 273 271 272 274 271 269 263 268 269 271 275 273 265 262 266 264 266 236 227 213 216 216 220 219 222
261 274 281 270 273 289 273 282 282 281 281 284 288 292 297 298 292 293 301 297 286 280 283 279 272 252 255 258 254 251 255 258 266 249 242 231 225 212 213 210 212 214 219
275 278 280 286 290 291 291 292 292 301 302 301 304 306 301 304 307 309 312 309 304 301 292 280 281 283 278 271 262 259 258 264 265 268 247 241 224 229 225 203 204 209 210
237 274 280 287 288 291 295 295 301 311 308 309 313 318 316 317 322 317 315 318 321 318 314 311 299 290 284 276 265 259 260 260 266 272 243 236 237 233 222 204 200 202 205
252 264 271 270 280 287 289 291 296 302 307 314 321 323 328 326 324 329 333 342 324 324 313 308 302 299 295 284 270 262 259 263 268 264 273 244 238 248 208 204 200 202 201
260 258 252 269 279 286 292 289 292 299 300 300 312 324 319 321 337 340 340 328 319 316 315 309 304 300 293 281 272 254 246 251 257 265 266 259 251 252 216 213 207 198 192
244 262 266 274 289 286 289 290 299 303 302 303 312 318 314 341 341 337 335 330 325 320 317 314 313 312 310 315 283 263 251 240 240 247 254 252 243 233 228 205 190 190 194
237 244 257 272 274 277 282 285 293 299 300 305 307 317 335 353 324 326 327 330 327 323 321 319 317 319 320 323 324 321 308 244 234 236 241 244 216 215 213 196 191 190 185
218 235 244 253 271 276 277 282 293 298 300 306 313 320 339 332 328 327 328 327 326 323 319 319 320 325 326 326 329 332 339 353 355 354 20 50 79 98 130 143 146 141 137
205 243 253 265 263 274 284 279 278 288 298 302 312 323 329 330 329 329 329 328 328 329 329 329 330 333 335 334 336 338 344 349 346 358 27 47 55 72 92 106 117 122 131
202 228 255 278 287 280 282 281 294 293 293 299 301 310 315 320 319 321 324 326 329 330 333 334 334 335 337 340 344 346 352 359 359 10 30 51 60 69 83 88 98 111 119
196 230 248 270 265 275 293 289 285 286 283 288 301 301 305 306 310 315 319 322 325 328 332 335 337 339 347 352 344 353 6 18 24 26 31 56 67 70 79 85 92 91 100
215 233 246 248 261 259 261 280 288 290 296 303 301 299 298 303 306 311 315 323 327 325 327 332 334 339 341 353 357 8 21 38 29 34 41 52 64 69 79 88 92 94 96